New Haven, CT

3:49 AM EDT on May 23, 2017 (GMT -0400)
Tweed-New Haven

Weather History for KHVN - October, 2012

Change the Weather History Date:

Monday, October 8, 2012

  Actual Average Record
Temperature  
Mean Temperature 48 °F -  
Max Temperature 57 °F 63 °F 84 °F (1990)
Min Temperature 41 °F 47 °F 35 °F (1999)
Degree Days  
Heating Degree Days 17    
Moisture  
Dew Point 42 °F    
Average Humidity 76    
Maximum Humidity 93    
Minimum Humidity 57    
Precipitation  
Precipitation 0.00 in - - ()
Sea Level Pressure  
Sea Level Pressure 30.22 in    
Wind  
Wind Speed 3 mph (North)    
Max Wind Speed 8 mph    
Max Gust Speed -    
Visibility 10 miles    
Events      
Averages and records for this station are not official NWS values.
T = Trace of Precipitation, MM = Missing Value Source: NWS Daily Summary

Daily Weather History Graph

Daily Weather History Graph

Search for Another Location

Airport or City:

Trip Planner

Search our weather history database for the weather conditions in past years. The results will help you decide how hot, cold, wet, or windy it might be!

Date:

Astronomy

Oct. 08, 2012 Rise Set
Actual Time 6:56 AM EDT 6:21 PM EDT
Civil Twilight 6:28 AM EDT 6:48 PM EDT
Nautical Twilight 5:56 AM EDT 7:20 PM EDT
Astronomical Twilight 5:24 AM EDT 7:52 PM EDT
Moon No Moon Rise 2:12 PM EDT (10/8)
Length of Visible Light 12h 20m
Length of Day
11h 24m
Waning Gibbous, 46% of the Moon is Illuminated
Oct 8
Waning Gibbous
Oct 15
New
Oct 21
First Quarter
Oct 29
Full
Nov 6
Last Quarter

Hourly Weather History & Observations

Time (EDT) Temp. Windchill Dew Point Humidity Pressure Visibility Wind Dir Wind Speed Gust Speed Precip Events Conditions
12:53 AM 48.9 °F - 44.1 °F 83% 30.10 in 10.0 mi NNW 4.6 mph - 0.00 in   Overcast
1:53 AM 48.0 °F - 43.0 °F 83% 30.11 in 10.0 mi NW 4.6 mph - N/A   Clear
2:53 AM 48.0 °F - 43.0 °F 83% 30.10 in 10.0 mi NNW 3.5 mph - N/A   Clear
3:53 AM 44.1 °F 42.5 °F 42.1 °F 93% 30.12 in 10.0 mi North 3.5 mph - N/A   Clear
4:53 AM 45.0 °F 43.5 °F 41.0 °F 86% 30.14 in 10.0 mi North 3.5 mph - N/A   Clear
5:53 AM 43.0 °F - 41.0 °F 93% 30.15 in 10.0 mi Calm Calm - N/A   Clear
6:53 AM 42.1 °F - 39.9 °F 92% 30.18 in 10.0 mi Calm Calm - N/A   Clear
7:03 AM 42.8 °F - 39.2 °F 87% 30.18 in 2.5 mi Calm Calm - N/A   Partly Cloudy
7:11 AM 41.0 °F - 39.2 °F 93% 30.19 in 10.0 mi Calm Calm - N/A   Partly Cloudy
7:53 AM 44.1 °F - 42.1 °F 93% 30.22 in 10.0 mi Calm Calm - N/A   Partly Cloudy
8:53 AM 50.0 °F - 42.1 °F 74% 30.24 in 10.0 mi North 5.8 mph - N/A   Scattered Clouds
9:53 AM 54.0 °F - 43.0 °F 66% 30.26 in 10.0 mi NNW 5.8 mph - N/A   Scattered Clouds
10:53 AM 54.0 °F - 42.1 °F 64% 30.26 in 10.0 mi North 8.1 mph - N/A   Mostly Cloudy
11:53 AM 55.9 °F - 42.1 °F 60% 30.25 in 10.0 mi Variable 3.5 mph - N/A   Overcast
12:53 PM 55.9 °F - 41.0 °F 57% 30.25 in 10.0 mi Calm Calm - N/A   Overcast
1:53 PM 55.9 °F - 41.0 °F 57% 30.26 in 10.0 mi Calm Calm - N/A   Overcast
2:53 PM 55.9 °F - 42.1 °F 60% 30.26 in 10.0 mi ESE 3.5 mph - N/A   Overcast
3:53 PM 55.9 °F - 42.1 °F 60% 30.24 in 10.0 mi Calm Calm - N/A   Overcast
4:53 PM 55.9 °F - 42.1 °F 60% 30.26 in 10.0 mi Calm Calm - N/A   Mostly Cloudy
5:53 PM 55.0 °F - 41.0 °F 59% 30.28 in 10.0 mi Calm Calm - N/A   Mostly Cloudy
6:53 PM 54.0 °F - 45.0 °F 72% 30.29 in 10.0 mi Calm Calm - N/A   Overcast
7:53 PM 53.1 °F - 46.0 °F 77% 30.27 in 10.0 mi Calm Calm - N/A   Mostly Cloudy
8:53 PM 52.0 °F - 44.1 °F 74% 30.27 in 10.0 mi NE 3.5 mph - N/A   Partly Cloudy
9:53 PM 51.1 °F - 44.1 °F 77% 30.28 in 10.0 mi NE 4.6 mph - N/A   Clear
10:53 PM 50.0 °F - 45.0 °F 83% 30.27 in 10.0 mi North 6.9 mph - N/A   Clear
11:53 PM 50.0 °F - 45.0 °F 83% 30.25 in 10.0 mi North 6.9 mph - N/A   Partly Cloudy